COSMOS 1415 (GLONASS)

Satellite information

Favourite Embed

Satellite Type and Status

PAYLOADIN ORBIT

Key statistics

Satellite COSMOS 1415 (GLONASS) at a glance.

Uptime

15549

Days in orbit

Revolutions

≈ 2.1

Per day

Orbit

MEO

Medium Earth Orbit

Inclination

64.6

Latest

Satellite identification and parameters

Extended collection of information and parameters for COSMOS 1415 (GLONASS).

Object identification

Identified? True

Debris? False

Object name: COSMOS 1415 (GLONASS)

International designator: 1982-100E

Object number (NORAD): 13607

Object ID (CCSDS): 13607

Country: COMMONWEALTH OF INDEPENDENT STATES (CIS)

Current information (Y/N): Y

RCS size: MEDIUM

Orbital parameters

Period: 673.494 minutes

Inclination: 64.617 deg

SMA: 25451.653 km

Apoapsis: 19085.905 km

Periapsis: 19061.131 km

RAAN: 80.8875 deg

Eccentricy: 0.0004867

Argument of periapsis: 19.7037 deg

Mean anomaly: 164.5603 deg

Mean motion: 2.13810371 rev/day

Mean motion (dot): -0.00000003 rev/day2

B* drag term: 0.0 1/REarth

Two-line elements (TLE)

Creation date: May 8, 2025, 3:01 a.m.

Reference frame: TEME

Reference center: EARTH

Epoch: May 7, 2025, 7:01 a.m. UTC

TLE line 0: 0 COSMOS 1415 (GLONASS)

TLE line 1: 1 13607U 82100E 25127.29268604 -.00000003 00000-0 00000-0 0 9996

TLE line 2: 2 13607 64.6170 80.8875 0004867 19.7037 164.5603 2.13810371332268

Live tracking on map

Real-time ground track for satellite COSMOS 1415 (GLONASS).

In-orbit conjunctions

A list of the most updated potential collisions computed for object COSMOS 1415 (GLONASS).

Target Orbit TCA Probability of collision Miss distance Type
ARIANE 44LP DEB MEO 2024-06-17 09:53:40 TBA 1851.0 (m) DEBRIS

Associated space launch

GLONASS navigation satellite

COSMOS 1415 (GLONASS) was lifted into orbit during the mission ‘Proton | Uragan 1’, on board a Proton space rocket.

The launch took place on Oct. 12, 1982, 2:56 p.m. from 200/39 (200L).

For more information about the launch, click the button.

Launch to space Proton | Uragan 1
Proton | Uragan 1

Agency: N/A

Status: Launch Successful

Launch date: Oct. 12, 1982, 2:56 p.m. UTC

Rocket: Proton

Launch pad: 200/39 (200L)

Location: Baikonur Cosmodrome, Republic of Kazakhstan

...

Latest news about this satellite

There are no fresh news available about this satellite. Check back as we update our databases every day.


Newsletter sign-up

Weekly statistics, charts and insights to help you stay on top of the space industry.